GW4410 Weather Reports


time (UTC)temp
C
wind
direction
speed
KPH
gust
KPH
rain 1hr
cm
rain 24hr
cm
rain mn
cm
humidity
%
barometer
mb
20260504175554 20 294 3.2 14.5 0.00 0.00 0.00 38 1037.0
20260504175050 20 305 9.7 19.3 0.00 0.00 0.00 35 1036.9
20260504174549 20 272 4.8 9.7 0.00 0.00 0.00 40 1037.0
20260504174045 20 259 9.7 9.7 0.00 0.00 0.00 37 1037.0
20260504173542 20 322 6.4 9.7 0.00 0.00 0.00 37 1037.3
20260504173039 20 257 1.6 8.0 0.00 0.00 0.00 36 1037.2
20260504172535 19 298 4.8 11.3 0.00 0.00 0.00 35 1037.2
20260504172032 19 258 9.7 17.7 0.00 0.00 0.00 34 1037.2
20260504171529 19 236 3.2 9.7 0.00 0.00 0.00 34 1037.3
20260504171026 18 299 9.7 16.1 0.00 0.00 0.00 34 1037.2
20260504170522 19 289 8.0 8.0 0.00 0.00 0.00 36 1037.3
20260504160442 19 253 3.2 6.4 0.00 0.00 0.00 40 1037.7
20260504150906 17 258 8.0 12.9 0.00 0.00 0.00 36 1038.6
20260504150402 16 345 8.0 17.7 0.00 0.00 0.00 37 1038.3
20260504141332 16 103 4.8 12.9 0.00 0.00 0.00 41 1038.7
20260504140829 16 193 4.8 14.5 0.00 0.00 0.00 38 1038.6
20260504140324 16 317 3.2 8.0 0.00 0.00 0.00 39 1038.8
20260504130753 13 308 3.2 9.7 0.00 0.00 0.00 50 1039.1
20260504130249 13 322 3.2 8.0 0.00 0.00 0.00 46 1039.4
20260504120213 11 301 3.2 6.4 0.00 0.00 0.00 55 1039.5
20260504110640 8 275 6.4 6.4 0.00 0.00 0.00 61 1039.3
20260504110137 8 289 6.4 8.0 0.00 0.00 0.00 59 1039.5
20260504100557 7 303 6.4 6.4 0.00 0.00 0.00 61 1039.3
20260504081951 7 285 4.8 9.7 0.00 0.00 0.00 59 1038.7
20260504081448 7 298 6.4 9.7 0.00 0.00 0.00 58 1038.5
20260504080943 7 303 6.4 6.4 0.00 0.00 0.00 59 1038.6
20260504080440 7 278 4.8 6.4 0.00 0.00 0.00 58 1038.7
20260504070403 6 286 3.2 4.8 0.00 0.00 0.00 58 1038.5
20260504050738 5 336 3.2 3.2 0.00 0.00 0.00 66 1038.4
20260504050235 5 297 3.2 4.8 0.00 0.00 0.00 64 1038.5
20260504045732 5 317 3.2 4.8 0.00 0.00 0.00 65 1038.4
20260504045227 5 286 4.8 6.4 0.00 0.00 0.00 66 1038.5
20260504044725 5 288 6.4 6.4 0.00 0.00 0.00 63 1038.6
20260504044222 5 307 3.2 4.8 0.00 0.00 0.00 63 1038.3
20260504043719 5 345 3.2 3.2 0.00 0.00 0.00 62 1038.5
20260504043215 6 340 3.2 6.4 0.00 0.00 0.00 63 1038.6
20260504042713 5 295 3.2 4.8 0.00 0.00 0.00 62 1038.2
20260504042209 5 290 4.8 6.4 0.00 0.00 0.00 63 1038.5
20260504041706 5 306 3.2 3.2 0.00 0.00 0.00 62 1038.5
20260504041201 6 331 3.2 4.8 0.00 0.00 0.00 64 1038.5
20260504040658 6 297 1.6 4.8 0.00 0.00 0.00 62 1038.4
20260504040155 6 285 4.8 6.4 0.00 0.00 0.00 63 1038.5
20260504035652 6 283 6.4 6.4 0.00 0.00 0.00 63 1038.4
20260504035149 6 315 4.8 4.8 0.00 0.00 0.00 62 1038.4
20260504034647 6 315 1.6 4.8 0.00 0.00 0.00 64 1038.4
20260504034143 6 344 1.6 3.2 0.00 0.00 0.00 62 1038.3
20260504033641 6 328 1.6 6.4 0.00 0.00 0.00 64 1038.3
20260504033138 5 289 6.4 6.4 0.00 0.00 0.00 60 1038.1
20260504032635 5 325 3.2 3.2 0.00 0.00 0.00 63 1038.3
20260504032132 5 311 3.2 4.8 0.00 0.00 0.00 63 1038.3
20260504031629 6 329 3.2 4.8 0.00 0.00 0.00 61 1038.3
20260504031125 6 295 3.2 6.4 0.00 0.00 0.00 61 1038.3
20260504030622 6 275 3.2 6.4 0.00 0.00 0.00 59 1038.2
20260504030119 6 312 3.2 4.8 0.00 0.00 0.00 57 1038.2
20260504025616 6 307 1.6 4.8 0.00 0.00 0.00 55 1038.1
20260504025113 6 318 1.6 4.8 0.00 0.00 0.00 59 1038.3
20260504024610 6 302 3.2 4.8 0.00 0.00 0.00 61 1038.2
20260504024107 6 282 4.8 6.4 0.00 0.00 0.00 61 1038.3
20260504023603 6 300 4.8 6.4 0.00 0.00 0.00 62 1038.2
20260504023059 6 296 3.2 6.4 0.00 0.00 0.00 58 1038.2
20260504022555 6 326 3.2 4.8 0.00 0.00 0.00 61 1038.1
20260504022051 6 289 3.2 3.2 0.00 0.00 0.00 61 1038.1
20260504021549 6 310 3.2 6.4 0.00 0.00 0.00 60 1038.2
20260504021046 6 275 6.4 8.0 0.00 0.00 0.00 55 1038.3
20260504020543 6 340 1.6 4.8 0.00 0.00 0.00 57 1038.2
20260504020039 6 325 3.2 4.8 0.00 0.00 0.00 56 1038.2
20260504015536 6 319 3.2 4.8 0.00 0.00 0.00 58 1038.2
20260504015032 6 295 4.8 4.8 0.00 0.00 0.00 53 1038.2
20260504014528 6 300 4.8 6.4 0.00 0.00 0.00 53 1038.2
20260504014025 6 276 4.8 6.4 0.00 0.00 0.00 53 1038.0
20260504013523 6 318 1.6 3.2 0.00 0.00 0.00 56 1037.8
20260504013020 6 328 3.2 3.2 0.00 0.00 0.00 56 1038.0
20260504012517 6 324 3.2 4.8 0.00 0.00 0.00 58 1037.9
20260504012015 7 312 3.2 3.2 0.00 0.00 0.00 54 1037.8
20260504011511 7 315 3.2 6.4 0.00 0.00 0.00 54 1037.8
20260504011008 7 303 3.2 4.8 0.00 0.00 0.00 55 1037.7
20260504010503 7 333 3.2 3.2 0.00 0.00 0.00 56 1037.7
20260504005959 7 321 3.2 4.8 0.00 0.00 0.00 58 1037.5
20260504005456 7 304 3.2 4.8 0.00 0.00 0.00 55 1037.3
20260504004954 7 302 3.2 4.8 0.00 0.00 0.00 55 1037.4
20260504004451 7 310 3.2 4.8 0.00 0.00 0.00 52 1037.3
20260504003948 7 305 3.2 4.8 0.00 0.00 0.00 50 1037.4
20260504003444 7 330 1.6 4.8 0.00 0.00 0.00 53 1037.2
20260504002941 7 288 6.4 6.4 0.00 0.00 0.00 50 1037.0
20260504002438 7 322 3.2 3.2 0.00 0.00 0.00 54 1036.9
20260504001936 7 298 3.2 3.2 0.00 0.00 0.00 50 1037.0
20260504001433 7 289 3.2 3.2 0.00 0.00 0.00 50 1037.0
20260504000929 7 293 3.2 4.8 0.00 0.00 0.00 49 1036.9
20260504000426 8 309 3.2 3.2 0.00 0.00 0.00 49 1036.8
20260503235924 8 336 3.2 3.2 0.00 0.00 0.00 48 1036.8
20260503235422 8 304 3.2 4.8 0.00 0.00 0.00 44 1036.6
20260503234919 9 258 0.0 3.2 0.00 0.00 0.00 41 1036.6
20260503234416 9 261 3.2 4.8 0.00 0.00 0.00 43 1036.5
20260503233914 9 316 3.2 3.2 0.00 0.00 0.00 43 1036.6
20260503233410 10 267 1.6 3.2 0.00 0.00 0.00 41 1036.4
20260503232907 10 276 1.6 4.8 0.00 0.00 0.00 39 1036.2
20260503232404 10 262 1.6 3.2 0.00 0.00 0.00 41 1036.4
20260503231902 10 275 0.0 3.2 0.00 0.00 0.00 39 1036.5
20260503231359 10 17 0.0 3.2 0.00 0.00 0.00 39 1036.6
20260503230855 11 2 6.4 11.3 0.00 0.00 0.00 37 1036.3
20260503230352 11 29 6.4 8.0 0.00 0.00 0.00 37 1036.5
20260503225850 11 8 4.8 6.4 0.00 0.00 0.00 38 1036.3
20260503225345 11 314 3.2 9.7 0.00 0.00 0.00 38 1036.3
20260503224842 11 18 3.2 17.7 0.00 0.00 0.00 36 1036.2
20260503224339 11 297 8.0 8.0 0.00 0.00 0.00 39 1036.4
20260503223837 11 8 8.0 9.7 0.00 0.00 0.00 38 1036.3
20260503223334 11 75 4.8 12.9 0.00 0.00 0.00 36 1036.1
20260503222830 11 334 3.2 14.5 0.00 0.00 0.00 37 1036.2
20260503222328 11 337 3.2 12.9 0.00 0.00 0.00 42 1036.1
20260503221826 11 298 3.2 14.5 0.00 0.00 0.00 37 1036.1
20260503221325 11 294 4.8 24.1 0.00 0.00 0.00 37 1036.2
20260503220820 11 299 8.0 8.0 0.00 0.00 0.00 36 1036.0
20260503220317 11 88 8.0 8.0 0.00 0.00 0.00 37 1036.0
20260503215814 11 310 9.7 27.4 0.00 0.00 0.00 37 1036.0
20260503215311 11 57 9.7 9.7 0.00 0.00 0.00 38 1036.1
20260503214809 11 125 6.4 11.3 0.00 0.00 0.00 38 1036.0
20260503214306 10 340 4.8 16.1 0.00 0.00 0.00 38 1036.2
20260503213804 11 36 4.8 22.5 0.00 0.00 0.00 37 1036.1
20260503213301 11 349 11.3 20.9 0.00 0.00 0.00 37 1036.0
20260503212757 11 32 8.0 24.1 0.00 0.00 0.00 37 1036.3
20260503212255 11 29 12.9 19.3 0.00 0.00 0.00 38 1035.9
20260503211752 11 297 6.4 9.7 0.00 0.00 0.00 40 1036.0
20260503211248 11 353 6.4 20.9 0.00 0.00 0.00 38 1036.1
20260503210744 11 4 9.7 22.5 0.00 0.00 0.00 39 1036.0
20260503210242 10 321 6.4 11.3 0.00 0.00 0.00 39 1036.0
20260503205742 10 341 9.7 27.4 0.00 0.00 0.00 39 1036.3
20260503205239 10 29 6.4 16.1 0.00 0.00 0.00 39 1035.9
20260503204735 10 324 9.7 17.7 0.00 0.00 0.00 39 1035.9
20260503204233 10 21 17.7 38.6 0.00 0.00 0.00 37 1035.9
20260503203730 10 19 8.0 29.0 0.00 0.00 0.00 38 1036.0
20260503203228 11 262 8.0 20.9 0.00 0.00 0.00 39 1035.8
20260503202725 12 7 6.4 11.3 0.00 0.00 0.00 38 1036.0
20260503202223 12 280 3.2 9.7 0.00 0.00 0.00 39 1035.9
20260503201720 11 319 3.2 12.9 0.00 0.00 0.00 37 1036.0
20260503201217 11 286 6.4 14.5 0.00 0.00 0.00 39 1036.1
20260503200713 10 359 4.8 30.6 0.00 0.00 0.00 41 1036.0
20260503200210 10 338 3.2 20.9 0.00 0.00 0.00 40 1036.0
20260503195707 11 278 8.0 20.9 0.00 0.00 0.00 40 1035.8
20260503195204 11 60 6.4 27.4 0.00 0.00 0.00 40 1035.7
20260503194701 10 357 8.0 27.4 0.00 0.00 0.00 39 1035.9
20260503194156 10 7 6.4 24.1 0.00 0.00 0.00 40 1035.8
20260503193653 11 17 22.5 29.0 0.00 0.00 0.00 38 1035.9
20260503193149 11 295 14.5 32.2 0.00 0.00 0.00 40 1036.0
20260503192645 10 8 12.9 37.0 0.00 0.00 0.00 41 1035.8
20260503192140 10 48 4.8 27.4 0.00 0.00 0.00 41 1035.8
20260503191637 10 13 6.4 25.7 0.00 0.00 0.00 41 1036.0
20260503191135 11 349 14.5 16.1 0.00 0.00 0.00 37 1035.8
20260503190631 12 0 6.4 9.7 0.00 0.00 0.00 38 1035.8
20260503190128 11 309 8.0 14.5 0.00 0.00 0.00 39 1035.9
20260503185625 12 43 19.3 20.9 0.00 0.00 0.00 37 1035.7
20260503185120 12 322 6.4 11.3 0.00 0.00 0.00 38 1035.7
20260503184615 11 24 6.4 27.4 0.00 0.00 0.00 38 1035.9
20260503184112 11 12 8.0 25.7 0.00 0.00 0.00 39 1035.6
20260503183609 10 1 16.1 20.9 0.00 0.00 0.00 39 1035.7
20260503183106 11 8 12.9 32.2 0.00 0.00 0.00 39 1035.9
20260503182605 11 324 12.9 20.9 0.00 0.00 0.00 37 1035.8
20260503182102 10 20 8.0 46.7 0.00 0.00 0.00 39 1035.9
20260503181559 11 20 12.9 24.1 0.00 0.00 0.00 39 1035.8
20260503181055 10 345 6.4 20.9 0.00 0.00 0.00 39 1035.7
20260503180553 11 20 14.5 27.4 0.00 0.00 0.00 37 1035.9
20260503180050 10 317 8.0 14.5 0.00 0.00 0.00 40 1035.8